Cheraw, SC

4:54 PM EDT on May 24, 2017 (GMT -0400)
Cheraw

Weather History for KCQW - July, 2013

Change the Weather History Date:

Tuesday, July 30, 2013

  Actual Average (KFLO) Record (KFLO)
Temperature  
Mean Temperature 78 °F -  
Max Temperature 87 °F 89 °F 103 °F (1952)
Min Temperature 68 °F 70 °F 63 °F (1960)
Cooling Degree Days 12    
Growing Degree Days 28 (Base 50)    
Moisture  
Dew Point 66 °F    
Average Humidity 76    
Maximum Humidity 100    
Minimum Humidity 40    
Precipitation  
Precipitation 0.00 in - - ()
Sea Level Pressure  
Sea Level Pressure 30.17 in    
Wind  
Wind Speed - (North)    
Max Wind Speed -    
Max Gust Speed -    
Averages and records for this station are not official NWS values.
T = Trace of Precipitation, MM = Missing Value Source: NWS Daily Summary

Daily Weather History Graph

Daily Weather History Graph

Search for Another Location

Airport or City:

Trip Planner

Search our weather history database for the weather conditions in past years. The results will help you decide how hot, cold, wet, or windy it might be!

Date:

Astronomy

Jul. 30, 2013 Rise Set
Actual Time 6:28 AM EDT 8:23 PM EDT
Civil Twilight 6:00 AM EDT 8:51 PM EDT
Nautical Twilight 5:26 AM EDT 9:24 PM EDT
Astronomical Twilight 4:50 AM EDT 10:00 PM EDT
Moon 12:43 AM EDT (7/30) 2:42 PM EDT (7/30)
Length of Visible Light 14h 50m
Length of Day
13h 54m
Last Quarter, 41% of the Moon is Illuminated
Jul 30
Last Quarter
Aug 6
New
Aug 14
First Quarter
Aug 20
Full
Aug 28
Last Quarter

Hourly Weather History & Observations

Time (EDT) Temp. Heat Index Dew Point Humidity Pressure Visibility Wind Dir Wind Speed Gust Speed Precip Events Conditions
12:15 AM 69.8 °F - 69.8 °F 100% 30.16 in - North - - N/A Rain Light Rain
12:35 AM 68.0 °F - 68.0 °F 100% 30.16 in - North - - N/A Rain Light Rain
12:55 AM 68.0 °F - 68.0 °F 100% 30.17 in - North - - N/A Rain Light Rain
1:15 AM 68.0 °F - 68.0 °F 100% 30.17 in - North - - N/A Rain Light Rain
1:35 AM 68.0 °F - 68.0 °F 100% 30.16 in - North - - N/A Rain Light Rain
1:55 AM 68.0 °F - 68.0 °F 100% 30.16 in - North - - N/A Rain Light Rain
2:15 AM 68.0 °F - 68.0 °F 100% 30.16 in - North - - N/A Rain Light Rain
2:35 AM 68.0 °F - 68.0 °F 100% 30.16 in - North - - N/A Rain Light Rain
2:55 AM 68.0 °F - 68.0 °F 100% 30.15 in - North - - N/A Rain Light Rain
3:15 AM 68.0 °F - 68.0 °F 100% 30.15 in - North - - N/A Rain Light Rain
3:35 AM 68.0 °F - 68.0 °F 100% 30.15 in - North - - N/A Rain Light Rain
3:55 AM 68.0 °F - 68.0 °F 100% 30.15 in - North - - N/A Rain Light Rain
4:15 AM 68.0 °F - 68.0 °F 100% 30.15 in - North - - N/A Rain Light Rain
4:35 AM 68.0 °F - 68.0 °F 100% 30.15 in - North - - N/A Rain Light Rain
4:55 AM 68.0 °F - 68.0 °F 100% 30.16 in - North - - N/A Rain Light Rain
5:15 AM 68.0 °F - 68.0 °F 100% 30.16 in - North - - N/A Rain Light Rain
5:35 AM 68.0 °F - 68.0 °F 100% 30.16 in - North - - N/A Rain Light Rain
5:55 AM 68.0 °F - 68.0 °F 100% 30.17 in - North - - N/A Rain Light Rain
6:15 AM 68.0 °F - 68.0 °F 100% 30.17 in - North - - N/A Rain Light Rain
6:35 AM 68.0 °F - 68.0 °F 100% 30.18 in - North - - N/A Rain Light Rain
6:55 AM 68.0 °F - 68.0 °F 100% 30.19 in - North - - N/A Rain Light Rain
7:15 AM 68.0 °F - 68.0 °F 100% 30.19 in - North - - N/A Rain Light Rain
7:35 AM 68.0 °F - 68.0 °F 100% 30.20 in - North - - N/A Rain Light Rain
7:55 AM 68.0 °F - 68.0 °F 100% 30.21 in - North - - N/A Rain Light Rain
8:15 AM 69.8 °F - 69.8 °F 100% 30.21 in - North - - N/A Rain Light Rain
8:35 AM 68.0 °F - 68.0 °F 100% 30.21 in - North - - N/A Rain Light Rain
8:55 AM 71.6 °F - 71.6 °F 100% 30.21 in - North - - N/A Rain Light Rain
9:15 AM 75.2 °F - 68.0 °F 78% 30.21 in - North - - N/A Rain Light Rain
9:35 AM 75.2 °F - 68.0 °F 78% 30.21 in - North - - N/A Rain Light Rain
9:55 AM 77.0 °F - 66.2 °F 69% 30.21 in - North - - N/A Rain Light Rain
10:15 AM 78.8 °F - 66.2 °F 65% 30.21 in - North - - N/A Rain Light Rain
10:35 AM 78.8 °F - 64.4 °F 61% 30.21 in - North - - N/A Rain Light Rain
10:55 AM 80.6 °F 81.8 °F 62.6 °F 54% 30.21 in - North - - N/A Rain Light Rain
11:15 AM 80.6 °F 81.8 °F 62.6 °F 54% 30.21 in - North - - N/A Rain Light Rain
11:35 AM 82.4 °F 82.9 °F 60.8 °F 48% 30.21 in - North - - N/A Rain Light Rain
11:55 AM 80.6 °F 81.5 °F 60.8 °F 51% 30.21 in - North - - N/A Rain Light Rain
12:15 PM 82.4 °F 82.9 °F 60.8 °F 48% 30.21 in - North - - N/A Rain Light Rain
12:55 PM 82.4 °F 83.4 °F 62.6 °F 51% 30.20 in - North - - N/A Rain Light Rain
1:15 PM 84.2 °F 85.0 °F 62.6 °F 48% 30.19 in - North - - N/A Rain Light Rain
1:35 PM 84.2 °F 85.0 °F 62.6 °F 48% 30.18 in - North - - N/A Rain Light Rain
1:55 PM 84.2 °F 85.0 °F 62.6 °F 48% 30.18 in - North - - N/A Rain Light Rain
2:15 PM 84.2 °F 84.4 °F 60.8 °F 45% 30.17 in - North - - N/A Rain Light Rain
2:35 PM 84.2 °F 84.4 °F 60.8 °F 45% 30.16 in - North - - N/A Rain Light Rain
2:55 PM 86.0 °F 86.6 °F 62.6 °F 45% 30.16 in - North - - N/A Rain Light Rain
3:15 PM 86.0 °F 86.6 °F 62.6 °F 45% 30.15 in - North - - N/A Rain Light Rain
3:35 PM 86.0 °F 86.6 °F 62.6 °F 45% 30.15 in - North - - N/A Rain Light Rain
3:55 PM 86.0 °F 86.6 °F 62.6 °F 45% 30.15 in - North - - N/A Rain Light Rain
4:15 PM 86.0 °F 86.1 °F 60.8 °F 43% 30.15 in - North - - N/A Rain Light Rain
4:35 PM 86.0 °F 86.1 °F 60.8 °F 43% 30.14 in - North - - N/A Rain Light Rain
4:55 PM 86.0 °F 86.1 °F 60.8 °F 43% 30.14 in - North - - N/A Rain Light Rain
5:15 PM 87.8 °F 87.6 °F 60.8 °F 40% 30.14 in - North - - N/A Rain Light Rain
5:35 PM 86.0 °F 86.6 °F 62.6 °F 45% 30.14 in - North - - N/A Rain Light Rain
5:55 PM 86.0 °F 86.1 °F 60.8 °F 43% 30.14 in - North - - N/A Rain Light Rain
6:15 PM 87.8 °F 87.6 °F 60.8 °F 40% 30.14 in - North - - N/A Rain Light Rain
6:35 PM 86.0 °F 86.1 °F 60.8 °F 43% 30.14 in - North - - N/A Rain Light Rain
6:55 PM 86.0 °F 86.1 °F 60.8 °F 43% 30.13 in - North - - N/A Rain Light Rain
7:15 PM 84.2 °F 85.0 °F 62.6 °F 48% 30.13 in - North - - N/A Rain Light Rain
7:35 PM 80.6 °F 83.9 °F 69.8 °F 70% 30.13 in - North - - N/A Rain Light Rain
7:55 PM 77.0 °F - 68.0 °F 74% 30.13 in - North - - N/A Rain Light Rain
8:15 PM 77.0 °F - 69.8 °F 78% 30.13 in - North - - N/A Rain Light Rain
8:35 PM 77.0 °F - 69.8 °F 78% 30.13 in - North - - N/A Rain Light Rain
8:55 PM 75.2 °F - 69.8 °F 83% 30.13 in - North - - N/A Rain Light Rain
9:15 PM 75.2 °F - 69.8 °F 83% 30.14 in - North - - N/A Rain Light Rain
9:35 PM 73.4 °F - 71.6 °F 94% 30.14 in - North - - N/A Rain Light Rain
9:55 PM 73.4 °F - 69.8 °F 88% 30.15 in - North - - N/A Rain Light Rain
10:15 PM 73.4 °F - 69.8 °F 88% 30.15 in - North - - N/A Rain Light Rain
10:35 PM 71.6 °F - 71.6 °F 100% 30.15 in - North - - N/A Rain Light Rain
10:55 PM 73.4 °F - 71.6 °F 94% 30.15 in - North - - N/A Rain Light Rain
11:15 PM 71.6 °F - 71.6 °F 100% 30.15 in - North - - N/A Rain Light Rain
11:35 PM 73.4 °F - 71.6 °F 94% 30.15 in - North - - N/A Rain Light Rain
11:55 PM 73.4 °F - 69.8 °F 88% 30.15 in - North - - N/A Rain Light Rain